TimeCST,TemperatureF,Dew PointF,Humidity,Sea Level PressureIn,VisibilityMPH,Wind Direction,Wind SpeedMPH,Gust SpeedMPH,PrecipitationIn,Events,Conditions,WindDirDegrees,DateUTC
12:54 AM,-7.1,-11.9,79,30.53,10.0,Calm,Calm,-,N/A,,Clear,0,2014-02-07 06:54:00
1:54 AM,-8.0,-9.0,95,30.52,10.0,Calm,Calm,-,N/A,,Clear,0,2014-02-07 07:54:00
2:54 AM,-9.0,-13.0,83,30.50,10.0,Calm,Calm,-,N/A,,Clear,0,2014-02-07 08:54:00
3:54 AM,-9.0,-11.9,87,30.53,10.0,Calm,Calm,-,N/A,,Clear,0,2014-02-07 09:54:00
4:54 AM,-9.0,-13.0,83,30.52,10.0,Calm,Calm,-,N/A,,Clear,0,2014-02-07 10:54:00
5:54 AM,-9.0,-13.0,83,30.53,10.0,Calm,Calm,-,N/A,,Clear,0,2014-02-07 11:54:00
6:54 AM,-11.0,-15.0,83,30.53,10.0,South,3.5,-,N/A,,Clear,170,2014-02-07 12:54:00
7:54 AM,-8.0,-11.9,83,30.55,10.0,Calm,Calm,-,N/A,,Clear,0,2014-02-07 13:54:00
8:54 AM,-2.9,-7.1,82,30.55,10.0,Calm,Calm,-,N/A,,Overcast,0,2014-02-07 14:54:00
9:54 AM,1.9,-2.9,80,30.56,10.0,Calm,Calm,-,N/A,,Overcast,0,2014-02-07 15:54:00
10:54 AM,5.0,-2.0,73,30.56,10.0,Calm,Calm,-,N/A,,Overcast,0,2014-02-07 16:54:00
11:54 AM,9.0,-2.9,59,30.53,10.0,Calm,Calm,-,N/A,,Overcast,0,2014-02-07 17:54:00
12:54 PM,12.0,-2.0,53,30.49,10.0,West,3.5,-,0.00,,Clear,270,2014-02-07 18:54:00
1:54 PM,16.0,-0.9,47,30.45,10.0,North,3.5,-,N/A,,Overcast,360,2014-02-07 19:54:00
2:54 PM,15.1,-0.9,49,30.43,10.0,Calm,Calm,-,N/A,,Overcast,0,2014-02-07 20:54:00
3:54 PM,16.0,-0.0,49,30.42,10.0,Calm,Calm,-,N/A,,Overcast,0,2014-02-07 21:54:00
4:54 PM,17.1,3.0,54,30.40,10.0,East,3.5,-,N/A,,Overcast,100,2014-02-07 22:54:00
5:54 PM,17.1,3.0,54,30.40,10.0,ESE,6.9,-,N/A,,Overcast,120,2014-02-07 23:54:00
6:54 PM,16.0,6.1,65,30.40,10.0,ESE,11.5,-,0.00,,Overcast,110,2014-02-08 00:54:00
7:54 PM,16.0,5.0,62,30.39,10.0,ESE,9.2,-,0.00,,Overcast,120,2014-02-08 01:54:00
8:54 PM,16.0,5.0,62,30.38,10.0,ESE,8.1,-,N/A,,Overcast,120,2014-02-08 02:54:00
9:54 PM,16.0,7.0,68,30.38,10.0,ESE,8.1,-,N/A,,Overcast,110,2014-02-08 03:54:00
10:54 PM,15.1,7.0,70,30.35,10.0,East,11.5,-,N/A,,Overcast,100,2014-02-08 04:54:00
11:54 PM,16.0,8.1,71,30.35,8.0,East,6.9,-,N/A,,Overcast,90,2014-02-08 05:54:00